星链-35936(STARLINK-35936)

导读

STARLINK-35936是美国SpaceX公司于2025年11月23日发射的星链系列卫星,属于Starlink低轨卫星互联网星座的组网卫星,旨在为全球提供高速低延迟宽带互联网服务,尤其覆盖偏远地区,支持地面、海事、航空等多场景应用,助力星链进一步扩展全球通信网络的覆盖容量与服务能力。

基本信息
目录编号:
66620
目录名称:
STARLINK-35936
国际标识:
2025-271D
轨道中心:
EARTH
卫星名称:
星链-35936
卫星全名:
星链-35936(STARLINK-35936)
卫星状态:
在轨 (已飞行285 天)
发射日期:
2025-11-23 UTC
国别 :
美国 (US)
星等 :
--
轨道信息
数据来源 国际轨道数据
星历时间: 2026-09-04T03:21:46+0800
11小时前
查看轨道信息
半长轴: 6840.842km
偏心率: 0.0001249
轨道倾角: 53.162°
近地点辐角 83.691°
升交点赤经 31.439°
平近点角 276.423°
近地点: 461.85km
远地点: 463.56km
周期: 93.848分钟
每日圈数: 15.343997
详细信息
固有亮度:
5
最大亮度:
2.5
卫星平台:
Starlink V1.0
覆盖范围:
全球
运营商:
太空探索技术公司
运营商所在国:
美国
制造商(研发单位):
太空探索技术公司
制造商所在国:
美国
使用方式:
暂无
卫星简介
Starlink 计划是 SpaceX 推出的全球卫星互联网项目,通过发射低轨道卫星,为全球尤其是偏远地区提供高速、低延迟的互联网服务。自 2019 年起,Starlink 已部署数千颗卫星,旨在缩小全球数字鸿沟,推动互联网普及。该项目还为军事、航空等行业提供通信支持,带来广泛经济效益。
2D轨道图
3D轨道图
轨道高度分析图
轨道倾角分析图
轨道综合分析图
查看轨道综合分析图
交会数据列表
事件ID 空间交会对象 最接近时刻(TCA) 交会距离 交会风险概率(CRP) 交会风险指数(CRI) 操作
CDM_260905-091905-927306-662021
2026-09-05T
09:19:24+0000
0.790 km
远距离
2.574154E-5 中风险 0.63
CDM_260904-100805-146906-662022
2026-09-04T
10:08:47+0000
2.798 km
极远距离
1.303791E-6 低风险 0.37
CDM_260904-025704-941806-662021
2026-09-04T
02:57:31+0000
2.931 km
极远距离
1.096099E-6 低风险 0.36
CDM_260905-105305-927306-662021
2026-09-05T
10:53:11+0000
2.578 km
极远距离
8.298852E-7 极低风险 0.33